Location: ????????
(38.4362°N, 22.8767°E)
Time: 04:57:23
(UTC+00:00)

FENGYUN 1C DEB - Pass Details

Date: 18 October 2025
Orbit: 841 x 1273 km, 99.2° (Epoch: 16 November)

Event Time Altitude Azimuth Distance (km) Brightness Sun altitude
Rises 04:05:08 0° 2° (N) 3,404 ? -7.7°
Reaches altitude 10° 04:07:42 10° 352° (N) 2,473 ? -7.2°
Maximum altitude 04:12:21 30° 293° (WNW) 1,495 ? -6.3°
Drops below altitude 10° 04:17:12 10° 233° (SW) 2,572 ? -5.3°
Sets 04:19:56 0° 223° (SW) 3,564 ? -4.8°
